TimePDT,TemperatureF,Dew PointF,Humidity,Sea Level PressureIn,VisibilityMPH,Wind Direction,Wind SpeedMPH,Gust SpeedMPH,PrecipitationIn,Events,Conditions,WindDirDegrees,DateUTC
12:53 AM,55.0,51.1,86,30.01,10.0,SE,4.6,-,0.00,Rain,Light Rain,140,2012-11-03 07:53:00
1:32 AM,53.6,51.8,94,30.01,8.0,SE,3.5,-,0.00,Rain,Light Rain,140,2012-11-03 08:32:00
1:39 AM,53.6,51.8,94,30.01,8.0,ESE,5.8,-,0.00,Rain,Light Rain,120,2012-11-03 08:39:00
1:53 AM,54.0,51.1,90,30.01,6.0,ESE,6.9,-,0.01,Rain,Light Rain,110,2012-11-03 08:53:00
2:03 AM,53.6,51.8,94,30.01,4.0,ESE,5.8,-,0.01,Rain,Light Rain,110,2012-11-03 09:03:00
2:53 AM,54.0,52.0,93,30.02,3.0,ESE,8.1,-,0.05,Rain,Rain,120,2012-11-03 09:53:00
3:00 AM,53.6,51.8,94,30.02,5.0,ESE,6.9,-,0.00,Rain,Light Rain,110,2012-11-03 10:00:00
3:16 AM,53.6,51.8,94,30.02,4.0,ESE,6.9,-,0.00,Rain,Light Rain,110,2012-11-03 10:16:00
3:53 AM,54.0,52.0,93,30.02,3.0,ESE,6.9,-,0.00,Rain,Light Rain,120,2012-11-03 10:53:00
4:25 AM,53.6,51.8,94,30.02,3.0,ESE,5.8,-,0.02,Rain,Light Rain,120,2012-11-03 11:25:00
4:53 AM,53.1,52.0,96,30.04,3.0,ESE,8.1,-,0.03,Rain,Light Rain,120,2012-11-03 11:53:00
5:06 AM,53.6,51.8,94,30.04,3.0,ESE,5.8,-,0.00,Rain,Light Rain,120,2012-11-03 12:06:00
5:11 AM,53.6,51.8,94,30.04,3.0,SE,4.6,-,0.01,Rain,Light Rain,130,2012-11-03 12:11:00
5:53 AM,54.0,52.0,93,30.04,4.0,SE,4.6,-,0.03,Rain,Light Rain,130,2012-11-03 12:53:00
6:43 AM,53.6,51.8,94,30.04,10.0,ESE,4.6,-,0.00,,Overcast,110,2012-11-03 13:43:00
6:53 AM,54.0,53.1,97,30.04,10.0,ESE,4.6,-,0.00,,Overcast,110,2012-11-03 13:53:00
7:29 AM,55.4,53.6,94,30.05,10.0,ESE,3.5,-,N/A,,Overcast,110,2012-11-03 14:29:00
7:53 AM,55.9,53.1,90,30.06,10.0,Calm,Calm,-,N/A,,Overcast,0,2012-11-03 14:53:00
8:53 AM,57.0,53.1,87,30.07,10.0,East,6.9,-,N/A,,Overcast,90,2012-11-03 15:53:00
9:53 AM,57.0,53.1,87,30.09,10.0,ESE,8.1,-,N/A,,Overcast,120,2012-11-03 16:53:00
10:04 AM,57.2,53.6,88,30.09,10.0,ESE,6.9,-,N/A,,Overcast,120,2012-11-03 17:04:00
10:53 AM,57.9,54.0,87,30.11,10.0,Calm,Calm,-,N/A,,Overcast,0,2012-11-03 17:53:00
11:53 AM,59.0,54.0,83,30.13,10.0,Calm,Calm,-,N/A,,Overcast,0,2012-11-03 18:53:00
12:18 PM,59.0,55.4,88,30.12,10.0,ESE,3.5,-,N/A,,Overcast,110,2012-11-03 19:18:00
12:53 PM,60.1,55.0,83,30.12,10.0,SE,5.8,-,N/A,,Overcast,140,2012-11-03 19:53:00
1:53 PM,62.1,55.0,78,30.12,10.0,South,4.6,-,N/A,,Overcast,180,2012-11-03 20:53:00
2:11 PM,62.6,55.4,77,30.12,10.0,Variable,4.6,-,N/A,,Overcast,0,2012-11-03 21:11:00
2:21 PM,62.6,55.4,77,30.13,10.0,Calm,Calm,-,N/A,,Overcast,0,2012-11-03 21:21:00
2:34 PM,62.6,53.6,72,30.13,10.0,South,6.9,-,N/A,,Overcast,180,2012-11-03 21:34:00
2:53 PM,63.0,54.0,72,30.13,10.0,SSW,4.6,-,N/A,,Overcast,210,2012-11-03 21:53:00
3:53 PM,63.0,54.0,72,30.15,10.0,SSW,4.6,-,N/A,,Overcast,200,2012-11-03 22:53:00
4:53 PM,63.0,54.0,72,30.15,10.0,Variable,3.5,-,N/A,,Overcast,0,2012-11-03 23:53:00
5:53 PM,62.1,54.0,75,30.16,10.0,South,3.5,-,N/A,,Overcast,170,2012-11-04 00:53:00
6:53 PM,61.0,54.0,78,30.17,10.0,Calm,Calm,-,0.00,,Overcast,0,2012-11-04 01:53:00
7:53 PM,60.1,55.0,83,30.17,10.0,Calm,Calm,-,N/A,,Overcast,0,2012-11-04 02:53:00
8:53 PM,60.1,55.0,83,30.16,10.0,SE,3.5,-,N/A,,Overcast,130,2012-11-04 03:53:00
9:53 PM,59.0,55.0,87,30.17,10.0,Calm,Calm,-,N/A,,Overcast,0,2012-11-04 04:53:00
10:53 PM,59.0,55.9,90,30.17,10.0,ESE,3.5,-,N/A,,Overcast,120,2012-11-04 05:53:00
11:53 PM,57.9,55.0,90,30.18,10.0,Calm,Calm,-,N/A,,Overcast,0,2012-11-04 06:53:00